Location: Berg
(47.2344°N, 9.5296°E)
Time: 12:11:41
(UTC+00:00)

Okean-O - Pass Details

Date: 24 January 2021
Orbit: 638 x 641 km, 98.2° (Epoch: 06 March)

Event Time Altitude Azimuth Distance (km) Brightness Sun altitude
Rises 18:03:16 0° 168° (SSE) 2,934 6.0 -18.7°
Reaches altitude 10° 18:05:28 10° 170° (S) 2,029 5.2 -19.1°
Maximum altitude 18:09:53 77° 257° (WSW) 663 2.7 -19.8°
Drops below altitude 10° 18:14:21 10° 344° (NNW) 2,046 5.3 -20.6°
Sets 18:16:34 0° 345° (NNW) 2,960 6.2 -20.9°
